TIME,DELAY(SENSOR),PRES,OXYGEN,RAWTEMP,T(OPTODE),TCPHASE,FLUOR,BETA(BETA700),BETA(BETA412),BETA(BETA440),CDOM,C(CSC),ED(ED411.90),ED(ED443.80),ED(ED489.40),ED(ED554.70),LU(LU412.20),LU(LU443.80),LU(LU489.40),LU(LU555.00),COMP,TILTX,TILTY,CHECK
1346795496,5803,900.7700195312500000,169.2747039794922000,422.2369079589844000,10.2960195541381840,39.2034111022949200,51,105,100,82,74,15374,2147453750,2147786934,2147576045,2147821942,2147309037,2147460525,2147748306,2148269613,2071,6,14,28200
1346799092,5806,1030.0000000000000000,187.2333984375000000,493.1033020019531000,8.0958595275878900,39.1579399108886700,51,106,101,82,75,15366,2147443492,2147797531,2147582902,2147826715,2147304210,2147450788,2147757549,2148278070,416,6,14,46190
1346802692,5803,1003.0000000000000000,198.3108062744140600,506.2677001953125000,7.6838021278381350,38.6795616149902340,50,104,101,82,75,15364,2147442057,2147799661,2147583497,2147828050,2147307218,2147453650,2147759917,2148278957,793,6,14,45235
1346806292,5802,13.8000001907348630,199.0856018066406200,507.5064086914062500,7.6449680328369140,38.6538505554199200,51,109,100,81,75,15360,2147436800,2147798857,2147585682,2147829668,2147303442,2147450971,2147761673,2148279707,3165,6,14,63935
1346809892,5804,1015.0000000000000000,199.8215026855468800,508.3288879394531000,7.6191778182983400,38.6219482421875000,51,107,101,82,76,15357,2147435081,2147796032,2147584329,2147830582,2147306742,2147451776,2147764041,2148277476,2978,6,14,38383
1346813492,5802,10.3000001907348630,198.1900939941406200,506.5335998535156000,7.6754660606384280,38.6921615600585940,52,108,100,81,74,15352,2147437540,2147799990,2147586450,2147832493,2147302939,2147453833,2147762121,2148276690,205,6,14,55782
1346817092,5805,1046.0000000000000000,198.4586944580078000,507.2969055175781000,7.6515369415283200,38.6888389587402340,50,105,101,84,76,15348,2147437650,2147794340,2147582893,2147830043,2147303835,2147455881,2147758793,2148278866,3524,6,14,31877
1346820692,5804,10.8999996185302730,199.4145965576172000,507.8031005859375000,7.6356658935546875,38.6381416320800800,51,108,101,81,75,15350,2147440758,2147796534,2147586468,2147831936,2147303963,2147456978,2147761764,2148276434,3474,6,14,42977
1346824292,5805,1062.0000000000000000,194.7321929931640600,501.3146972656250000,7.8389711380004880,38.8175811767578100,50,105,101,83,74,15352,2147438939,2147795227,2147584173,2147827227,2147304356,2147448960,2147761984,2148277622,340,6,14,48252
1346827892,5807,11.5000000000000000,194.3108062744140600,501.6026000976562500,7.8299570083618160,38.8486595153808600,51,107,101,83,74,15350,2147439149,2147797257,2147586441,2147827913,2147301787,2147453357,2147760292,2148280557,158,6,14,54901
1346831492,5805,1046.0000000000000000,192.4232940673828000,502.0256042480469000,7.8167109489440920,38.9767417907714840,51,107,100,81,75,15349,2147436352,2147798381,2147586569,2147828114,2147305856,2147456411,2147757257,2148281444,93,6,14,54809
1346835092,5804,1043.0000000000000000,192.9441986083984400,502.0593872070312500,7.8156509399414060,38.9437217712402340,51,106,100,82,73,15348,2147438628,2147799789,2147583341,2147829430,2147303241,2147452470,2147760758,2148280182,3407,6,14,11943
1346838692,5804,11.1000003814697270,192.3549957275390600,502.4602966308594000,7.8030982017517090,38.9890518188476560,51,109,102,81,74,15348,2147436553,2147795931,2147582820,2147826852,2147305371,2147450550,2147762075,2148277248,217,6,14,18853
1346842292,5804,11.8999996185302730,194.3005981445312500,501.6307983398437500,7.8290729522705080,38.8499794006347660,51,108,101,82,74,15346,2147439689,2147798290,2147583442,2147827858,2147303113,2147455085,2147758253,2148278070,675,6,14,35524
1346845892,5808,1016.0000000000000000,192.1531066894531200,501.2903137207031000,7.8397340774536130,38.9808807373046900,51,111,101,82,74,15292,2147439451,2147793526,2147581705,2147829092,2147303643,2147459684,2147759058,2148275492,25,6,14,62747
1346849492,5803,1016.0000000000000000,191.8896026611328000,500.9502868652344000,7.8503828048706055,38.9921913146972660,51,105,100,83,74,15343,2147437376,2147797037,2147582866,2147826861,2147303506,2147453714,2147759524,2148282806,147,6,14,36025
1346853092,5803,1003.0000000000000000,191.3146972656250000,501.5433044433594000,7.8318138122558590,39.0391998291015600,51,107,101,83,75,15345,2147437814,2147793398,2147583734,2147828022,2147307190,2147450706,2147759670,2148279853,3554,6,14,27645
1346856692,5805,12.8999996185302730,192.0196075439453000,501.3948974609375000,7.8364620208740230,38.9920005798339840,51,106,101,83,74,15342,2147438308,2147792100,2147585216,2147828333,2147300617,2147452973,2147759661,2148277458,248,6,14,38708
1346860292,5804,12.0000000000000000,193.0597991943359400,501.3595886230469000,7.8375668525695800,38.9246101379394500,51,106,101,83,75,15336,2147443501,2147798061,2147583341,2147828041,2147301805,2147456100,2147758546,2148281362,207,6,14,64444
1346863892,5805,1228.0000000000000000,192.3231048583984400,501.2756958007812500,7.8401942253112790,38.9696006774902340,51,108,100,82,76,15332,2147436909,2147794395,2147583405,2147829120,2147306212,2147459291,2147760420,2148279094,231,6,14,35673
1346867492,5805,12.6999998092651370,192.9008941650390600,500.5170898437500000,7.8639430999755860,38.9203300476074200,51,108,100,84,75,15331,2147439707,2147796388,2147583341,2147829686,2147304667,2147450148,2147758336,2148278546,181,6,14,18255
1346871092,5804,1033.0000000000000000,194.4474029541015600,501.2755126953125000,7.8401999473571780,38.8347206115722660,51,108,102,81,75,15329,2147440064,2147797677,2147585344,2147826816,2147302875,2147453851,2147758098,2148275593,3048,6,14,15033
1346874692,5803,11.0000000000000000,193.9129028320312500,502.4401855468750000,7.8037261962890625,38.8894996643066400,50,111,100,82,75,15267,2147436964,2147797952,2147583506,2147828050,2147308955,2147450944,2147760658,2148275108,581,6,14,45930
1346878292,5803,1193.0000000000000000,194.2245941162109400,502.9765930175781000,7.7869257926940920,38.8783416748046900,50,111,101,83,75,15265,2147440347,2147798912,2147584576,2147829293,2147303533,2147451840,2147757440,2148277732,3512,6,15,63293
1346881892,5805,1215.0000000000000000,192.1797943115234400,503.6228027343750000,7.7666821479797360,39.0200195312500000,51,108,101,85,74,15269,2147439680,2147796315,2147586221,2147829220,2147303652,2147454500,2147759780,2148278107,20,6,14,22532
1346885492,5803,1092.0000000000000000,191.4705963134765600,503.8970031738281000,7.7580919265747070,39.0706481933593750,51,105,102,82,75,15265,2147435200,2147798400,2147587465,2147827629,2147303350,2147459108,2147755081,2148278838,216,6,14,38152
1346889092,5802,1206.0000000000000000,191.2987976074218800,503.8391113281250000,7.7599067687988280,39.0806617736816400,51,108,102,82,75,15264,2147440082,2147794916,2147584557,2147829101,2147305353,2147451437,2147756800,2148277714,3562,6,14,49738
1346892692,5806,11.8000001907348630,191.5673980712890600,503.9460144042969000,7.7565569877624510,39.0648612976074200,51,105,100,82,74,15262,2147435483,2147794880,2147584594,2147830994,2147302921,2147457060,2147758939,2148278427,3323,6,14,25789
1346896292,5805,1077.0000000000000000,196.0903930664062500,505.2268066406250000,7.7164249420166020,38.8004798889160160,51,106,101,82,74,15254,2147435318,2147797056,2147585389,2147831478,2147300909,2147454592,2147760713,2148277001,522,6,14,60639
1346899892,5805,1199.0000000000000000,194.9385070800781200,506.2719116210937500,7.6836709976196290,38.8905296325683600,51,108,101,82,75,15258,2147436397,2147799908,2147584009,2147831780,2147305408,2147448475,2147760667,2148276196,68,6,14,28976
1346903492,5804,1096.0000000000000000,195.4111938476562500,506.1577148437500000,7.6872482299804690,38.8591117858886700,51,105,100,82,75,15227,2147439378,2147796827,2147582080,2147828059,2147304109,2147457801,2147759744,2148276086,139,6,14,16850
1346907092,5803,1235.0000000000000000,197.5776977539062500,505.4530944824219000,7.7093329429626465,38.7103691101074200,50,106,100,83,74,15256,2147438582,2147799716,2147585042,2147832466,2147305152,2147449316,2147759186,2148277275,112,6,14,36562
1346910692,5804,12.3000001907348630,195.4721984863281200,504.8573913574219000,7.7280020713806150,38.8327102661132800,52,106,101,82,74,15260,2147439405,2147797293,2147583661,2147830217,2147303213,2147455049,2147756114,2148276022,315,6,14,40897
1346914292,5802,12.1000003814697270,193.9282989501953000,503.1141052246094000,7.7826189994812010,38.8992118835449200,52,104,100,82,75,15256,2147437833,2147797750,2147584210,2147829997,2147307218,2147450011,2147757440,2148278336,3298,6,14,18270
1346917892,5803,1063.0000000000000000,195.4557952880859400,504.4039001464844000,7.7422099113464355,38.8252601623535160,52,107,100,81,76,15251,2147437412,2147796324,2147585453,2147828662,2147305298,2147454610,2147759881,2148280649,3295,6,14,7260
1346921492,5804,1010.0000000000000000,196.1569061279297000,505.0282897949219000,7.7226462364196780,38.7923088073730500,51,111,101,83,74,15254,2147437842,2147795657,2147582628,2147826221,2147303222,2147454784,2147759122,2148275657,3406,6,14,30873
1346925092,5804,12.3000001907348630,196.1824951171875000,505.0382995605469000,7.7223339080810550,38.7911911010742200,50,110,101,82,74,15224,2147436498,2147795218,2147585984,2147827904,2147302747,2147452736,2147761883,2148279908,3533,6,14,48314
1346928692,5802,12.1000003814697270,195.7281036376953000,505.0549926757812500,7.7218089103698730,38.8201484680175800,51,107,101,84,77,15249,2147437412,2147794322,2147586093,2147828041,2147306386,2147454528,2147759451,2148278884,135,6,14,51487
1346932292,5805,12.1000003814697270,196.0617980957031200,505.0762939453125000,7.7211408615112305,38.7991294860839840,51,127,100,82,75,15253,2147434733,2147794816,2147585261,2147830500,2147305307,2147453430,2147759424,2148276854,444,6,14,51095
1346935892,5802,12.3000001907348630,196.3728942871093800,504.7662048339844000,7.7308578491210940,38.7743988037109400,50,107,101,84,75,15248,2147440054,2147797092,2147583469,2147829549,2147300489,2147456685,2147760722,2148277229,617,6,14,58736
1346938257,5802,1099.0000000000000000,196.5892028808593800,505.0795898437500000,7.7210397720336910,38.7659492492675800,51,107,101,82,75,15255,2147436681,2147796324,2147584923,2147828516,2147305252,2147456722,2147757723,2148275913,421,6,14,54285
